• In Deutschland
  • Länderverzeichnis
  • Für 7 Tage
  • Wassertemperatur
  • Satellitenkarten
  • Wetterkarte
  • Widgets
  • user-avatar
    Anmelden

    Stündliche Wetter Perth

    Heute, 20 Oktober, Freitag

    Zeit Temperatur Niederschläge Wind Luftdruck Luftfeuchtigkeit
    00:00 +16°C° 0 mm 5 m/S 766 mmHg 43%
    01:00 +16°C° 0 mm 6 m/S 766 mmHg 45%
    02:00 +17°C° 0 mm 8 m/S 766 mmHg 42%
    03:00 +16°C° 0 mm 7 m/S 766 mmHg 44%
    04:00 +16°C° 0 mm 7 m/S 766 mmHg 46%
    05:00 +16°C° 0 mm 7 m/S 766 mmHg 48%
    06:00 +17°C° 0 mm 7 m/S 766 mmHg 46%
    07:00 +18°C° 0 mm 7 m/S 766 mmHg 44%
    08:00 +21°C° 0 mm 8 m/S 767 mmHg 41%
    09:00 +23°C° 0 mm 7 m/S 766 mmHg 38%
    10:00 +26°C° 0 mm 6 m/S 766 mmHg 35%
    11:00 +28°C° 0 mm 6 m/S 766 mmHg 31%
    12:00 +29°C° 0 mm 5 m/S 765 mmHg 29%
    13:00 +30°C° 0 mm 4 m/S 765 mmHg 27%
    14:00 +31°C° 0 mm 3 m/S 764 mmHg 25%
    15:00 +31°C° 0 mm 3 m/S 764 mmHg 26%
    16:00 +30°C° 0 mm 3 m/S 764 mmHg 27%
    17:00 +30°C° 0 mm 3 m/S 764 mmHg 29%
    18:00 +28°C° 0 mm 3 m/S 764 mmHg 31%
    19:00 +26°C° 0 mm 4 m/S 764 mmHg 33%
    20:00 +22°C° 0 mm 4 m/S 765 mmHg 35%
    21:00 +22°C° 0 mm 4 m/S 765 mmHg 34%
    22:00 +21°C° 0 mm 4 m/S 764 mmHg 32%
    23:00 +21°C° 0 mm 5 m/S 764 mmHg 30%

    Morgen, 21 Oktober, Samstag

    Zeit Temperatur Niederschläge Wind Luftdruck Luftfeuchtigkeit
    00:00 +21°C° 0 mm 5 m/S 764 mmHg 30%
    01:00 +20°C° 0 mm 5 m/S 764 mmHg 31%
    02:00 +20°C° 0 mm 5 m/S 763 mmHg 31%
    03:00 +20°C° 0 mm 5 m/S 763 mmHg 31%
    04:00 +19°C° 0 mm 6 m/S 763 mmHg 31%
    05:00 +19°C° 0 mm 6 m/S 763 mmHg 31%
    06:00 +21°C° 0 mm 6 m/S 763 mmHg 32%
    07:00 +22°C° 0 mm 6 m/S 763 mmHg 32%
    08:00 +24°C° 0 mm 7 m/S 763 mmHg 33%
    09:00 +26°C° 0 mm 7 m/S 763 mmHg 34%
    10:00 +27°C° 0 mm 7 m/S 762 mmHg 34%
    11:00 +29°C° 0 mm 7 m/S 762 mmHg 35%
    12:00 +27°C° 0,2 mm 7 m/S 762 mmHg 41%
    13:00 +26°C° 0,2 mm 7 m/S 762 mmHg 47%
    14:00 +24°C° 0,2 mm 7 m/S 761 mmHg 53%
    15:00 +24°C° 0,5 mm 7 m/S 761 mmHg 55%
    16:00 +23°C° 0,5 mm 7 m/S 761 mmHg 57%
    17:00 +22°C° 0,5 mm 7 m/S 761 mmHg 60%
    18:00 +23°C° 0,1 mm 8 m/S 761 mmHg 58%
    19:00 +23°C° 0,1 mm 9 m/S 760 mmHg 57%
    20:00 +23°C° 0,1 mm 9 m/S 760 mmHg 55%
    21:00 +22°C° 0,4 mm 9 m/S 760 mmHg 61%
    22:00 +21°C° 0,4 mm 9 m/S 760 mmHg 66%
    23:00 +21°C° 0,4 mm 9 m/S 760 mmHg 72%

    übermorgen, 22 Oktober, Sonntag

    Zeit Temperatur Niederschläge Wind Luftdruck Luftfeuchtigkeit
    00:00 +21°C° 0,2 mm 8 m/S 759 mmHg 71%
    01:00 +20°C° 0,2 mm 8 m/S 759 mmHg 70%
    02:00 +20°C° 0,2 mm 7 m/S 758 mmHg 70%
    03:00 +20°C° 0,1 mm 6 m/S 758 mmHg 73%
    04:00 +19°C° 0,1 mm 5 m/S 758 mmHg 76%
    05:00 +18°C° 0,1 mm 4 m/S 757 mmHg 79%
    06:00 +19°C° 0,1 mm 4 m/S 757 mmHg 75%
    07:00 +20°C° 0,1 mm 3 m/S 757 mmHg 72%
    08:00 +22°C° 0,1 mm 3 m/S 757 mmHg 68%
    09:00 +25°C° 0 mm 3 m/S 757 mmHg 60%
    10:00 +27°C° 0 mm 2 m/S 757 mmHg 52%
    11:00 +30°C° 0 mm 2 m/S 757 mmHg 44%
    12:00 +30°C° 0 mm 3 m/S 757 mmHg 43%
    13:00 +30°C° 0 mm 3 m/S 756 mmHg 42%
    14:00 +30°C° 0 mm 4 m/S 756 mmHg 41%
    15:00 +29°C° 0 mm 4 m/S 756 mmHg 46%
    16:00 +27°C° 0 mm 4 m/S 756 mmHg 51%
    17:00 +26°C° 0 mm 4 m/S 756 mmHg 56%
    18:00 +23°C° 0 mm 4 m/S 756 mmHg 63%
    19:00 +21°C° 0 mm 4 m/S 757 mmHg 71%
    20:00 +20°C° 0 mm 4 m/S 757 mmHg 79%
    21:00 +19°C° 0 mm 4 m/S 758 mmHg 83%
    22:00 +19°C° 0 mm 4 m/S 758 mmHg 86%
    23:00 +18°C° 0 mm 4 m/S 758 mmHg 90%

    23 Oktober, Montag

    Zeit Temperatur Niederschläge Wind Luftdruck Luftfeuchtigkeit
    00:00 +18°C° 0 mm 3 m/S 758 mmHg 91%
    01:00 +18°C° 0 mm 3 m/S 758 mmHg 92%
    02:00 +18°C° 0 mm 3 m/S 757 mmHg 93%
    03:00 +18°C° 0 mm 3 m/S 757 mmHg 93%
    04:00 +17°C° 0 mm 3 m/S 758 mmHg 93%
    05:00 +17°C° 0 mm 3 m/S 758 mmHg 93%
    06:00 +18°C° 0 mm 3 m/S 758 mmHg 87%
    07:00 +20°C° 0 mm 3 m/S 759 mmHg 81%
    08:00 +21°C° 0 mm 3 m/S 759 mmHg 75%
    09:00 +22°C° 0 mm 4 m/S 759 mmHg 69%
    10:00 +25°C° 0 mm 4 m/S 759 mmHg 63%
    11:00 +26°C° 0 mm 4 m/S 759 mmHg 57%
    12:00 +26°C° 0 mm 5 m/S 759 mmHg 57%
    13:00 +26°C° 0 mm 5 m/S 759 mmHg 57%
    14:00 +26°C° 0 mm 6 m/S 758 mmHg 57%
    15:00 +24°C° 0 mm 6 m/S 759 mmHg 60%
    16:00 +23°C° 0 mm 6 m/S 759 mmHg 62%
    17:00 +22°C° 0 mm 5 m/S 759 mmHg 65%
    18:00 +20°C° 0 mm 5 m/S 760 mmHg 69%
    19:00 +19°C° 0 mm 5 m/S 760 mmHg 74%
    20:00 +17°C° 0 mm 4 m/S 761 mmHg 79%
    21:00 +15°C° 0 mm 4 m/S 761 mmHg 80%
    22:00 +15°C° 0 mm 4 m/S 761 mmHg 81%
    23:00 +14°C° 0 mm 4 m/S 761 mmHg 82%

    24 Oktober, Dienstag

    Zeit Temperatur Niederschläge Wind Luftdruck Luftfeuchtigkeit
    00:00 +14°C° 0 mm 4 m/S 761 mmHg 82%
    01:00 +13°C° 0 mm 4 m/S 761 mmHg 82%
    02:00 +13°C° 0 mm 3 m/S 761 mmHg 82%
    03:00 +13°C° 0 mm 3 m/S 761 mmHg 83%
    04:00 +12°C° 0 mm 3 m/S 761 mmHg 84%
    05:00 +12°C° 0 mm 3 m/S 761 mmHg 85%
    06:00 +13°C° 0 mm 3 m/S 762 mmHg 78%
    07:00 +16°C° 0 mm 3 m/S 762 mmHg 71%
    08:00 +18°C° 0 mm 2 m/S 763 mmHg 65%
    09:00 +20°C° 0 mm 2 m/S 762 mmHg 57%
    10:00 +23°C° 0 mm 2 m/S 762 mmHg 50%
    11:00 +25°C° 0 mm 2 m/S 762 mmHg 42%
    12:00 +25°C° 0 mm 3 m/S 761 mmHg 42%
    13:00 +25°C° 0 mm 3 m/S 761 mmHg 41%
    14:00 +25°C° 0 mm 4 m/S 760 mmHg 40%
    15:00 +23°C° 0 mm 4 m/S 760 mmHg 45%
    16:00 +22°C° 0 mm 5 m/S 760 mmHg 50%
    17:00 +21°C° 0 mm 5 m/S 761 mmHg 55%
    18:00 +19°C° 0 mm 5 m/S 761 mmHg 62%
    19:00 +18°C° 0 mm 4 m/S 762 mmHg 70%
    20:00 +15°C° 0 mm 4 m/S 763 mmHg 77%
    21:00 +15°C° 0 mm 4 m/S 763 mmHg 80%
    22:00 +16°C° 0 mm 3 m/S 763 mmHg 83%
    23:00 +14°C° 0 mm 3 m/S 763 mmHg 86%

    25 Oktober, Mittwoch

    Zeit Temperatur Niederschläge Wind Luftdruck Luftfeuchtigkeit
    00:00 +15°C° 0 mm 2 m/S 763 mmHg 87%
    01:00 +15°C° 0 mm 2 m/S 762 mmHg 88%
    02:00 +15°C° 0 mm 2 m/S 762 mmHg 88%
    03:00 +15°C° 0 mm 2 m/S 762 mmHg 89%
    04:00 +14°C° 0 mm 2 m/S 762 mmHg 89%
    05:00 +14°C° 0 mm 1 m/S 762 mmHg 89%
    06:00 +16°C° 0 mm 2 m/S 763 mmHg 84%
    07:00 +18°C° 0 mm 2 m/S 763 mmHg 78%
    08:00 +20°C° 0 mm 3 m/S 763 mmHg 72%
    09:00 +21°C° 0 mm 3 m/S 763 mmHg 68%
    10:00 +22°C° 0 mm 4 m/S 763 mmHg 64%
    11:00 +23°C° 0 mm 4 m/S 763 mmHg 59%
    12:00 +23°C° 0 mm 4 m/S 762 mmHg 58%
    13:00 +25°C° 0 mm 5 m/S 762 mmHg 56%
    14:00 +25°C° 0 mm 5 m/S 761 mmHg 54%
    15:00 +23°C° 0 mm 5 m/S 761 mmHg 58%
    16:00 +23°C° 0 mm 5 m/S 761 mmHg 62%
    17:00 +22°C° 0 mm 5 m/S 761 mmHg 66%
    18:00 +20°C° 0 mm 4 m/S 762 mmHg 74%
    19:00 +19°C° 0 mm 4 m/S 762 mmHg 82%
    20:00 +17°C° 0 mm 3 m/S 762 mmHg 89%
    21:00 +17°C° 0 mm 3 m/S 762 mmHg 90%
    22:00 +17°C° 0 mm 3 m/S 762 mmHg 90%
    23:00 +17°C° 0 mm 3 m/S 762 mmHg 91%
    Mehr zeigen